Flag for Germany Past Weather in Stolberg (Rheinland), North Rhine-Westphalia, Germany — Yesterday and Last 2 Weeks

Now
57 °F

Passing clouds.


Feels Like: 57 °F
Forecast: 58 / 67 °F
Wind: 5 mph from West

Location: Noervenich

Current Time: Jun 29, 2016 at 7:39:43 AM

Latest Report: Jun 29, 2016 at 6:20 AM


Visibility: N/A

Pressure: 29.89 "Hg

Humidity: 88%

Dew Point: 54 °F

Location of Stolberg (Rheinland)Location

Past Weather in Stolberg (Rheinland) — Graph

°F

Stolberg (Rheinland) Temperature Yesterday

Maximum temperature yesterday: 73 °F (at 5:20 PM)
Minimum temperature yesterday: 57 °F (at 4:20 AM)
Average temperature yesterday: 65 °F

High & Low Weather Summary for the Past Weeks

 TemperatureHumidityPressure
High91 °F (Jun 23, 2:20 PM)100% (Jun 16, 11:20 PM)30.27 "Hg (Jun 16, 11:20 PM)
Low48 °F (Jun 16, 4:20 AM)41% (Jun 23, 4:20 PM)29.47 "Hg (Jun 14, 5:20 PM)
Average63 °F79%29.95 "Hg
* Reported Jun 14 6:20 AM — Jun 29 6:20 AM, Stolberg (Rheinland), Weather by CustomWeather, © 2016

Note: Actual official high and low records may vary slightly from our data, if they occured in-between our weather recording intervals... More about our weather records

Advertising

Stolberg (Rheinland) Weather History for the Previous 24 Hours

Scroll right to see more
 ConditionsComfort  
Time TempWeatherWind HumidityBarometerVisibility
6:20 AM
Wed, Jun 29
57 °FPassing clouds.5 mph88%29.89 "HgN/A
5:20 AM61 °FPassing clouds.3 mph88%29.86 "HgN/A
4:20 AM63 °FPartly cloudy.3 mph83%29.86 "HgN/A
3:20 AM61 °FPartly cloudy.3 mph88%29.86 "HgN/A
2:20 AM61 °FPassing clouds.3 mph88%29.86 "HgN/A
1:20 AM63 °FPartly cloudy.6 mph88%29.86 "HgN/A
12:20 AM63 °FRain. Overcast.1 mph83%29.86 "HgN/A
11:20 PM
Tue, Jun 28
64 °FPartly cloudy.2 mph73%29.89 "HgN/A
10:20 PM66 °FBroken clouds.3 mph60%29.89 "HgN/A
9:20 PM68 °FBroken clouds.2 mph60%29.92 "HgN/A
8:20 PM70 °FBroken clouds.3 mph53%29.92 "HgN/A
7:20 PM72 °FPartly sunny.7 mph47%29.92 "HgN/A
6:20 PM73 °FPartly sunny.3 mph47%29.95 "HgN/A
6:00 PM72 °FPartly sunny.2 mph47%29.95 "HgN/A
5:20 PM73 °FBroken clouds.6 mph44%29.98 "HgN/A
4:20 PM72 °FBroken clouds.3 mph47%29.98 "HgN/A
3:20 PM72 °FBroken clouds.5 mph47%30.01 "HgN/A
2:20 PM72 °FScattered clouds.3 mph50%30.01 "HgN/A
1:20 PM70 °FScattered clouds.2 mph53%30.04 "HgN/A
12:20 PM66 °FBroken clouds.2 mph68%30.04 "HgN/A
11:20 AM66 °FScattered clouds.3 mph68%30.07 "HgN/A
10:20 AM64 °FBroken clouds.3 mph73%30.07 "HgN/A
9:20 AM63 °FPartly sunny.3 mph77%30.07 "HgN/A
8:20 AM61 °FBroken clouds.2 mph83%30.09 "HgN/A
7:20 AM57 °FBroken clouds.1 mph94%30.09 "HgN/A
Weather by CustomWeather, © 2016

See weather overviewHow to use our weather pages